[[{"header":{"parameterUnit":"m.s-1","parameterCategory":1,"la1":30.2991,"la2":30.254,"lo1":-89.0895,"lo2":-89.0444,"dy":0.0017,"dx":0.0017,"nx":28,"ny":28,"refTime":"2025-03-27T21:00:00:Z","depth":0,"parameterNumber":2,"parameterNumberName":"U-component_of_WINDS"},"data":[0,0,0,0,0,0,0,0,0,0,0,0,0,0,0,0,0,0,0,0,0,0,0,0,0,0,0,0,0,0,0,0,0,0,0,0,0,0,0,0,0,0,0,0,0,0,0,0,0,0,0,0,0,0,0,0,0,0,-5.7752,-5.7753,0,-5.7833,-5.7834,-5.7835,-5.7818,-5.7817,-5.7815,-5.7814,-5.7895,-5.7898,-5.7902,0,0,0,0,0,0,0,0,0,0,0,0,0,-5.7585,-5.7588,-5.7752,-5.7753,-5.7754,-5.7833,-5.7834,-5.7835,-5.7819,-5.7817,-5.7815,-5.7813,-5.7894,-5.7898,-5.7902,0,0,0,0,0,0,0,0,0,0,0,0,0,-5.766,-5.7589,-5.7752,-5.7756,-5.7757,-5.7832,-5.7834,-5.7835,-5.7819,-5.7817,-5.7815,-5.7812,-5.7892,-5.7898,-5.7903,-5.7979,0,0,-5.7919,-5.7921,0,0,0,0,0,0,0,0,-5.7656,-5.7667,-5.7754,-5.7756,-5.7757,-5.7813,-5.7804,-5.7883,-5.782,-5.7795,-5.7814,-5.7811,-5.787,-5.7877,-5.7896,-5.7983,-5.7987,-5.7919,-5.7923,-5.7925,-5.7926,0,0,0,0,0,0,0,-5.7651,-5.7663,-5.7784,-5.7755,-5.7757,-5.7753,-5.7762,-5.7819,-5.7844,-5.7797,-5.7796,-5.7806,-5.787,-5.7891,-5.7898,-5.7988,-5.7919,-5.7924,-5.7927,-5.7929,-5.8142,-5.8144,0,0,0,0,0,0,-5.7644,-5.7659,-5.7781,-5.7786,-5.77,-5.7758,-5.7767,-5.7797,-5.7843,-5.7848,-5.7808,-5.7805,-5.7883,-5.7892,-5.7901,-5.7993,-5.7925,-5.793,-5.7933,-5.814,-5.8143,-5.8145,0,0,0,0,0,0,-5.7641,-5.7656,-5.7778,-5.7722,-5.7738,-5.7763,-5.7797,-5.78,-5.7822,-5.7851,-5.7855,-5.7825,-5.7882,-5.7894,-5.796,-5.7996,-5.7932,-5.7937,-5.8137,-5.8141,-5.8144,-5.8178,0,0,0,0,0,0,-5.7636,-5.7654,-5.7684,-5.7723,-5.7741,-5.7836,-5.7799,-5.7803,-5.7831,-5.7828,-5.7869,-5.7873,-5.7881,-5.7952,-5.7965,-5.8002,-5.7941,-5.8133,-5.8138,-5.8143,-5.8174,-5.8182,-5.819,0,0,0,0,0,-5.763,-5.769,-5.7685,-5.77,-5.7778,-5.7838,-5.7848,-5.7856,-5.7834,-5.7863,-5.7883,-5.7872,-5.799,-5.7959,-5.7974,-5.8012,-5.8131,-5.8137,-5.8142,-5.817,-5.8181,-5.819,0,0,0,0,0,0,-5.7652,-5.7695,-5.769,-5.7764,-5.7798,-5.7835,-5.7872,-5.7867,-5.7908,-5.7903,-5.7912,-5.7921,-5.7989,-5.8008,-5.7972,-5.8089,-5.8058,-5.8066,-5.8074,-5.8084,-5.8092,-5.8085,-5.7945,0,0,0,0,0,-5.7666,-5.7712,-5.7746,-5.7808,-5.7826,-5.7847,-5.7873,-5.7877,-5.7912,-5.7926,-5.795,-5.7984,-5.8029,-5.8058,-5.8101,-5.8178,-5.8186,-5.8212,-5.822,-5.8226,-5.8233,-5.8274,-5.8286,-5.8164,-5.8164,-5.8163,0,0,-5.7694,-5.7723,-5.7751,-5.7814,-5.784,-5.7887,-5.7858,-5.7909,-5.7944,-5.7933,-5.7997,-5.8017,-5.8055,-5.8127,-5.816,-5.8145,-5.8269,-5.8233,-5.8238,-5.8241,-5.8281,-5.8293,-5.8303,-5.8167,-5.8167,-5.8166,0,0,-5.7769,-5.7796,-5.7851,-5.7878,-5.7919,-5.7933,-5.7946,-5.7985,-5.7998,-5.8063,-5.8056,-5.8098,-5.8175,-5.8203,-5.8227,-5.8316,-5.8307,-5.833,-5.837,-5.8411,-5.8421,-5.8429,-5.8459,-5.847,-5.8337,-5.8337,-5.8337,0,-5.7798,-5.7869,-5.7879,-5.7931,-5.7958,-5.7953,-5.8008,-5.8034,-5.8087,-5.8106,-5.8089,-5.8186,-5.8212,-5.829,-5.8312,-5.8332,-5.8347,-5.8323,-5.8419,-5.8427,-5.8435,-5.8464,-5.8476,-5.8339,-5.8339,-5.8339,-5.8338,0,-5.7903,-5.7952,-5.7991,-5.8043,-5.8075,-5.8128,-5.8146,-5.8178,-5.818,-5.8196,-5.8262,-5.8294,-5.8343,-5.8363,-5.8365,-5.8442,-5.8431,-5.8416,-5.8384,-5.8449,-5.8476,-5.8487,-5.8342,-5.8342,-5.8341,-5.834,0,0,-5.7991,-5.8049,-5.8063,-5.8086,-5.8132,-5.817,-5.8224,-5.8273,-5.8299,-5.8337,-5.8381,-5.8448,-5.8436,-5.8463,-5.8469,-5.8505,-5.8572,-5.8486,-5.8487,-5.8499,-5.8658,-5.8666,-5.8679,-5.8568,-5.857,-5.8572,-5.8654,0,-5.8068,-5.8162,-5.8174,-5.8257,-5.8303,-5.83,-5.8346,-5.8379,-5.8396,-5.8437,-5.8456,-5.8503,-5.8483,-5.85,-5.8536,-5.8556,-5.8603,-5.8551,-5.8608,-5.861,-5.8596,-5.8694,-5.8703,-5.8778,-5.8665,-5.8667,-5.8668,0,-5.8171,-5.8212,-5.83,-5.834,-5.836,-5.8401,-5.8447,-5.8487,-5.8525,-5.8535,-5.8567,-5.8569,-5.8624,-5.8592,-5.8668,-5.8632,-5.8657,-5.8671,-5.8674,-5.8678,-5.8641,-5.8698,-5.8803,-5.8813,-5.8685,-5.8684,-5.8682,0,-5.8224,-5.8301,-5.8364,-5.8385,-5.8434,-5.8463,-5.8485,-5.8521,-5.855,-5.8591,-5.861,-5.8656,-5.8681,-5.8718,-5.8732,-5.8708,-5.8807,-5.8777,-5.8816,-5.8816,-5.8835,-5.8833,-5.8943,-5.8855,-5.8855,-5.8854,-5.8854,0,-5.8308,-5.8361,-5.8389,-5.8427,-5.8487,-5.8501,-5.856,-5.8581,-5.8613,-5.8655,-5.8657,-5.8696,-5.8714,-5.8756,-5.8768,-5.8829,-5.8841,-5.885,-5.8852,-5.8848,-5.8847,-5.8863,-5.8857,-5.8857,-5.8857,-5.8856,-5.8856,0,-5.8376,-5.8397,-5.8465,-5.8506,-5.8518,-5.8561,-5.8596,-5.8633,-5.8651,-5.8705,-5.8718,-5.8745,-5.8796,-5.8815,-5.8876,-5.8884,-5.8954,-5.8953,-5.8941,-5.894,-5.8978,-5.8974,-5.91,-5.9117,-5.902,-5.9021,-5.9021,0,-5.8427,-5.8468,-5.8515,-5.8544,-5.8567,-5.8613,-5.8643,-5.8659,-5.869,-5.8737,-5.8769,-5.8819,-5.886,-5.894,-5.8966,-5.9013,-5.9012,-5.9053,-5.9018,-5.9014,-5.901,-5.9006,-5.901,-5.9058,-5.9059,-5.906,-5.9061,0,-5.8515,-5.8524,-5.8567,-5.8614,-5.865,-5.8688,-5.8725,-5.8748,-5.877,-5.8805,-5.8856,-5.8888,-5.8952,-5.9001,-5.905,-5.9072,-5.907,-5.9072,-5.9083,-5.9079,-5.9069,-5.9073,-5.8956,-5.9068,-5.9067,-5.9067,-5.9066,-5.9066,-5.8575,-5.8612,-5.865,-5.8699,-5.8729,-5.8763,-5.88,-5.8823,-5.8867,-5.8919,-5.8927,-5.8982,-5.902,-5.9085,-5.911,-5.9154,-5.9143,-5.9159,-5.9163,-5.9167,-5.9168,-5.9065,-5.9163,-5.9163,-5.9163,-5.9163,-5.9163,0,-5.8662,-5.8687,-5.8732,-5.8783,-5.8822,-5.8818,-5.8859,-5.8891,-5.8939,-5.8976,-5.9016,-5.9076,-5.9125,-5.9155,-5.9204,-5.9233,-5.9233,-5.9245,-5.9242,-5.9247,-5.9176,-5.9161,-5.9244,-5.9244,-5.9244,-5.9244,-5.9244,-5.9244,-5.8711,-5.8773,-5.8786,-5.8863,-5.8887,-5.8942,-5.8965,-5.8998,-5.9026,-5.9093,-5.9134,-5.9154,-5.9188,-5.9239,-5.9284,-5.9292,-5.9309,-5.9322,-5.9328,-5.9261,-5.9252,-5.9244,-5.9229,-5.9326,-5.9326,-5.9395,-5.9396,-5.9396]},{"header":{"parameterUnit":"m.s-1","parameterCategory":1,"la1":30.2991,"la2":30.254,"lo1":-89.0895,"lo2":-89.0444,"dy":0.0017,"dx":0.0017,"nx":28,"ny":28,"refTime":"2025-03-27T21:00:00:Z","depth":0,"parameterNumber":3,"parameterNumberName":"V-component_of_WINDS"},"data":[0,0,0,0,0,0,0,0,0,0,0,0,0,0,0,0,0,0,0,0,0,0,0,0,0,0,0,0,0,0,0,0,0,0,0,0,0,0,0,0,0,0,0,0,0,0,0,0,0,0,0,0,0,0,0,0,0,0,3.81,3.8101,0,3.822,3.8222,3.8223,3.8312,3.8313,3.8314,3.8314,3.8432,3.8434,3.8436,0,0,0,0,0,0,0,0,0,0,0,0,0,3.794,3.7943,3.8099,3.8101,3.8103,3.822,3.8222,3.8223,3.8312,3.8313,3.8314,3.8315,3.8431,3.8434,3.8437,0,0,0,0,0,0,0,0,0,0,0,0,0,3.803,3.7944,3.8099,3.8161,3.8168,3.822,3.8222,3.8224,3.8312,3.8313,3.8314,3.8315,3.843,3.8434,3.8437,3.8435,0,0,3.8448,3.845,0,0,0,0,0,0,0,0,3.8025,3.8036,3.815,3.8157,3.8165,3.8252,3.8209,3.8294,3.8311,3.8257,3.8314,3.8316,3.8371,3.8379,3.8399,3.8441,3.8446,3.8448,3.845,3.8452,3.8453,0,0,0,0,0,0,0,3.8018,3.8031,3.8147,3.8152,3.8161,3.8181,3.8195,3.8225,3.8305,3.8262,3.8269,3.8282,3.8375,3.8395,3.8402,3.8447,3.8448,3.8451,3.8454,3.8455,3.8494,3.8493,0,0,0,0,0,0,3.8003,3.8025,3.8143,3.8151,3.8096,3.8183,3.8199,3.8223,3.8305,3.8319,3.8281,3.8286,3.8389,3.8398,3.8407,3.8412,3.8452,3.8455,3.8457,3.8495,3.8494,3.8493,0,0,0,0,0,0,3.8,3.8013,3.8138,3.809,3.8107,3.8184,3.8211,3.8225,3.8246,3.832,3.8334,3.8288,3.839,3.8402,3.8428,3.8417,3.8457,3.846,3.8496,3.8495,3.8493,3.842,0,0,0,0,0,0,3.7995,3.8011,3.8013,3.8089,3.811,3.8159,3.821,3.8226,3.8252,3.826,3.833,3.8343,3.8392,3.8422,3.8432,3.8423,3.8463,3.8498,3.8496,3.8494,3.8424,3.8416,3.8409,0,0,0,0,0,3.7989,3.7986,3.8012,3.8026,3.8114,3.8158,3.817,3.8228,3.8251,3.8253,3.83,3.8341,3.8416,3.8424,3.8436,3.8427,3.8499,3.8496,3.8494,3.8427,3.8418,3.841,0,0,0,0,0,0,3.7904,3.7997,3.8027,3.805,3.8096,3.8173,3.8177,3.8216,3.8255,3.8261,3.8329,3.8344,3.8363,3.8397,3.8405,3.843,3.8462,3.8462,3.8408,3.8399,3.8392,3.8385,3.8466,0,0,0,0,0,3.7888,3.7918,3.7997,3.8009,3.8031,3.81,3.8121,3.8163,3.8212,3.8232,3.8281,3.8326,3.836,3.8381,3.8416,3.8428,3.8445,3.8428,3.8421,3.8414,3.8414,3.8423,3.8417,3.8485,3.8485,3.8485,0,0,3.7855,3.7909,3.7924,3.7993,3.8034,3.8063,3.8116,3.8143,3.8165,3.8235,3.8265,3.8302,3.8356,3.8376,3.8386,3.8405,3.8398,3.8411,3.8406,3.8409,3.842,3.8414,3.8408,3.8483,3.8483,3.8483,0,0,3.7811,3.7854,3.787,3.791,3.7972,3.8017,3.8021,3.8093,3.8121,3.8152,3.8205,3.823,3.8287,3.8325,3.8351,3.8319,3.8358,3.8328,3.8292,3.83,3.8295,3.829,3.8281,3.8276,3.8327,3.8327,3.8327,0,3.7762,3.781,3.7872,3.7899,3.7927,3.7993,3.8009,3.8043,3.8112,3.813,3.8149,3.8223,3.8264,3.8294,3.8286,3.8304,3.831,3.8322,3.8291,3.8287,3.8284,3.8275,3.8271,3.8323,3.8323,3.8324,3.8324,0,3.7747,3.7779,3.7783,3.7851,3.788,3.79,3.7965,3.7986,3.8023,3.8067,3.8096,3.8148,3.8195,3.8205,3.8241,3.8239,3.8249,3.8278,3.8313,3.8273,3.8266,3.8263,3.8317,3.8319,3.832,3.8321,0,0,3.7654,3.7757,3.7758,3.779,3.7862,3.7887,3.7909,3.7957,3.7975,3.8019,3.8039,3.8086,3.8114,3.8143,3.8184,3.8191,3.8164,3.822,3.8222,3.8209,3.8167,3.8146,3.8141,3.8189,3.8189,3.8189,3.8163,0,3.7623,3.767,3.7727,3.7754,3.7785,3.7847,3.7866,3.7911,3.7951,3.7982,3.8025,3.8058,3.8091,3.811,3.8119,3.8166,3.8157,3.8168,3.8209,3.821,3.8196,3.8137,3.8116,3.8089,3.816,3.816,3.816,0,3.7593,3.7637,3.7668,3.7738,3.7753,3.777,3.7819,3.7847,3.7899,3.7927,3.796,3.8004,3.8029,3.8058,3.8094,3.81,3.8119,3.8144,3.8144,3.8152,3.8184,3.8145,3.8081,3.8078,3.8156,3.8156,3.8156,0,3.7525,3.7591,3.7619,3.7644,3.7726,3.7736,3.777,3.7824,3.7849,3.7891,3.7908,3.795,3.7974,3.8006,3.8059,3.8075,3.8089,3.8122,3.8113,3.8112,3.8116,3.8115,3.8056,3.8124,3.8124,3.8124,3.8124,0,3.7486,3.7503,3.759,3.7607,3.7627,3.7691,3.7708,3.7747,3.7794,3.7819,3.7873,3.7894,3.7963,3.7991,3.8033,3.8056,3.8066,3.8089,3.81,3.8086,3.8083,3.8101,3.8105,3.8123,3.8123,3.8123,3.8123,0,3.7415,3.7474,3.7508,3.7583,3.7602,3.7614,3.7677,3.7695,3.7738,3.7768,3.7778,3.7845,3.7882,3.7938,3.799,3.8018,3.8035,3.8052,3.8019,3.8026,3.8015,3.8016,3.7967,3.7964,3.8031,3.803,3.803,0,3.7387,3.7402,3.7479,3.7501,3.7534,3.7567,3.7594,3.7656,3.7681,3.7741,3.7752,3.7793,3.783,3.7885,3.7937,3.7977,3.7997,3.7977,3.8003,3.7988,3.7999,3.7998,3.8,3.7971,3.797,3.7969,3.7969,0,3.7332,3.7361,3.7399,3.7447,3.7478,3.7518,3.7561,3.7574,3.7645,3.7671,3.771,3.7739,3.7793,3.7833,3.7881,3.7914,3.7953,3.7959,3.796,3.7947,3.7928,3.794,3.8004,3.7961,3.7962,3.7962,3.7963,3.7963,3.7284,3.7301,3.7358,3.7398,3.7437,3.7475,3.7496,3.7542,3.7577,3.7628,3.7662,3.7699,3.7749,3.7818,3.7848,3.7877,3.7894,3.7894,3.7895,3.7894,3.789,3.7921,3.7886,3.7886,3.7886,3.7887,3.7887,0,3.7234,3.7274,3.731,3.737,3.7401,3.7436,3.7484,3.7508,3.7541,3.7586,3.7621,3.7666,3.7705,3.7759,3.7802,3.7815,3.7834,3.7824,3.7825,3.7832,3.7872,3.7868,3.7808,3.7808,3.7808,3.7808,3.7808,3.7808,3.7212,3.7242,3.7277,3.7327,3.7366,3.7405,3.743,3.7465,3.7502,3.755,3.7584,3.762,3.7668,3.7714,3.7751,3.7766,3.778,3.7765,3.7785,3.7822,3.7829,3.7836,3.7833,3.7767,3.7767,3.7744,3.7744,3.7743]}]]